{"data":{"norad_id":64449,"intl_designator":"2025-130M","name":"STARLINK-34459","alt_names":[],"object_type":"PAYLOAD","status":"ACTIVE","operator":null,"country":"US","launch_date":"2025-06-18","launch_site_code":"AFETR","launch_vehicle":null,"mission":null,"orbit_class":"UNKNOWN","rcs_meters":null,"size_class":null,"mass_kg":null,"dimensions":null,"purposes":["comms"],"wikipedia_slug":null,"has_3d_model":false,"image_url":null,"decayed_at":null,"tle_current":{"epoch":"2026-05-25T02:14:30.827040Z","epoch_age_seconds":62928,"freshness":"FRESH","line1":"1 64449U 25130M   26145.09341235  .00026455  00000+0  79141-3 0  9999","line2":"2 64449  53.1584  93.4469 0002638  10.5816 349.5242 15.34396152 52409","mean_motion":15.34396152,"eccentricity":0.0002638,"inclination_deg":53.1584,"raan_deg":93.4469,"arg_perigee_deg":10.5816,"mean_anomaly_deg":349.5242,"bstar":0.00079141,"rev_number":5240,"period_min":93.84799343527,"perigee_km":460.91006062546,"apogee_km":464.51929397041,"semimajor_km":6840.8516772979,"source":"CELESTRAK","updated_at":"2026-05-25T13:38:20.449729Z"}}}